Location: Caltech
(34.1382°N, 118.1253°W)
Time: 17:02:47
(UTC-07:00)

Cosmos 1980 Rocket - Visible Passes

Search period start: 28 May 2017 00:00
Search period end: 07 June 2017 00:00
Orbit: 828 x 851 km, 71.0° (Epoch: 27 May)

Date Brightness Start Highest point End Pass type
(mag) Time Alt. Az. Time Alt. Az. Time Alt. Az.
28 May 4.6 00:45:40 10° WNW 00:46:23 12° WNW 00:46:23 12° WNW visible
28 May 2.3 22:43:49 10° NNW 22:49:22 58° ENE 22:49:22 58° ENE visible
29 May 4.5 00:29:42 10° WNW 00:31:08 13° W 00:31:08 13° W visible
29 May 2.4 22:28:11 10° NNW 22:33:42 54° ENE 22:34:08 53° E visible
30 May 4.4 00:13:47 10° WNW 00:15:54 15° W 00:15:54 15° W visible
30 May 2.5 22:12:32 10° N 22:18:02 51° ENE 22:18:57 46° E visible
30 May 4.2 23:57:54 10° WNW 00:00:43 17° W 00:00:43 17° W visible
31 May 2.6 21:56:54 10° N 22:02:21 47° ENE 22:03:47 38° ESE visible
31 May 4.1 23:42:02 10° WNW 23:45:34 19° W 23:45:34 19° W visible
01 Jun 2.7 21:41:16 10° N 21:46:39 44° ENE 21:48:40 32° ESE visible
01 Jun 4.0 23:26:12 10° NW 23:30:15 20° W 23:30:27 20° WSW visible
02 Jun 2.8 21:25:39 10° N 21:30:58 41° ENE 21:33:35 26° ESE visible
02 Jun 3.8 23:10:23 10° NW 23:14:36 22° W 23:15:22 21° WSW visible
03 Jun 2.9 21:10:01 10° N 21:15:16 38° ENE 21:18:33 20° ESE visible
03 Jun 3.8 22:54:34 10° NW 22:58:57 24° W 23:00:20 22° WSW visible
04 Jun 3.0 20:54:25 10° N 20:59:34 36° ENE 21:03:33 15° ESE visible
04 Jun 3.8 22:38:47 10° NW 22:43:19 26° WSW 22:45:21 21° SW visible
05 Jun 3.1 20:38:48 10° N 20:43:52 33° ENE 20:48:36 11° SE visible
05 Jun 3.7 22:23:00 10° NW 22:27:41 27° WSW 22:30:23 19° SW visible
06 Jun 3.2 20:23:12 10° N 20:28:10 31° ENE 20:33:06 10° SE visible
06 Jun 3.7 22:07:14 10° NW 22:12:02 30° WSW 22:15:29 16° SSW visible
